Total_Precipitation_Accumulation
3.26 3.62 3.66 3.60 3.52 3.61 3.57 3.43 3.21 3.19 3.16 2.95 2.72 2.75 2.79 2.80 2.92 3.16 3.30 3.29 3.38 3.72 4.30 4.66 4.71 4.51 4.35 4.26 4.29 4.03 3.76 3.61 3.48 3.22 3.02 2.87 2.72 2.62 2.57 2.55 2.48 2.28 2.21
3.75 4.02 4.07 4.04 3.84 3.88 3.84 3.74 3.54 3.57 3.56 3.50 3.28 3.16 3.08 3.07 3.06 3.15 3.45 3.66 3.58 3.64 4.19 4.88 5.21 5.14 4.91 4.65 4.49 4.18 3.97 3.85 3.74 3.52 3.23 2.99 2.74 2.65 2.62 2.61 2.61 2.44 2.29
4.32 4.44 4.51 4.30 4.14 4.18 4.38 4.37 4.24 4.16 3.82 3.69 3.64 3.65 3.49 3.26 3.22 3.36 3.64 4.12 4.01 4.10 4.32 4.51 4.72 4.77 4.95 5.01 4.93 4.74 4.35 4.06 3.96 3.85 3.55 3.33 3.07 2.83 2.75 2.72 2.77 2.70 2.49
4.38 4.59 4.59 4.44 4.36 4.37 4.69 4.87 4.81 4.72 4.47 4.33 4.11 3.86 3.63 3.57 3.50 3.63 3.76 4.04 4.32 4.31 4.54 4.48 4.39 4.41 4.70 4.95 5.07 5.12 4.87 4.41 4.18 4.22 4.07 3.79 3.46 3.24 3.04 2.89 2.89 2.84 2.71
4.74 4.87 4.72 4.74 4.80 4.91 4.93 4.69 4.89 4.74 4.74 4.65 4.12 3.89 3.64 3.60 3.75 3.69 3.78 3.88 4.15 4.23 4.35 4.27 4.27 4.36 4.61 4.96 5.08 5.23 5.25 4.95 4.60 4.44 4.48 4.32 4.00 3.63 3.32 3.08 2.88 2.81 2.75
5.14 5.43 5.36 5.27 5.29 5.30 5.15 5.06 5.13 4.84 4.71 4.67 4.12 3.90 3.66 3.56 3.61 3.71 3.68 3.75 3.77 3.69 3.71 3.75 4.01 3.97 4.25 4.54 4.67 4.90 5.20 5.30 5.01 4.65 4.47 4.50 4.27 3.78 3.30 3.10 2.96 2.86 2.79
5.95 6.03 5.83 5.69 5.54 5.53 5.48 5.46 5.36 5.12 4.83 4.83 4.76 4.35 3.80 3.54 3.53 3.48 3.51 3.57 3.57 3.52 3.61 3.64 3.54 3.46 3.49 3.78 4.01 4.32 4.72 5.14 5.18 5.02 4.82 4.67 4.46 3.99 3.48 3.12 3.01 2.95 2.85
6.04 5.95 6.09 6.04 5.89 5.80 5.67 5.49 5.41 5.23 4.86 4.81 4.82 4.80 4.25 3.92 3.48 3.05 3.04 3.10 3.26 3.46 3.37 3.28 3.35 3.38 3.23 3.30 3.30 3.75 4.16 4.54 4.89 4.96 4.81 4.59 4.33 4.05 3.83 3.53 3.29 3.14 3.04
6.13 5.93 5.84 5.70 5.64 5.53 5.51 5.38 5.19 5.02 4.82 4.70 4.68 4.92 4.51 4.04 3.59 3.27 2.88 2.81 2.98 3.15 3.08 3.08 2.99 3.07 3.13 3.27 3.22 3.40 3.66 3.75 4.22 4.63 4.77 4.56 4.29 4.02 3.83 3.70 3.55 3.44 3.32
5.66 5.43 5.35 5.30 5.22 4.88 4.77 4.65 4.63 4.49 4.37 4.19 4.24 4.11 3.98 3.81 3.84 3.74 3.43 3.19 3.12 3.13 3.07 2.92 2.87 3.01 3.05 3.18 3.30 3.22 3.18 3.18 3.51 3.99 4.42 4.49 4.28 4.10 3.98 3.88 3.80 3.72 3.66
5.06 4.78 4.70 4.62 4.39 4.02 3.74 3.70 3.90 3.92 3.90 3.82 3.85 3.82 3.83 3.69 3.57 3.57 3.54 3.44 3.36 3.15 3.03 3.03 3.01 2.98 2.94 2.97 3.07 3.12 3.03 2.82 2.87 3.09 3.62 4.05 4.23 4.25 4.15 3.96 3.90 3.85 3.86
4.52 4.13 3.79 3.61 3.38 3.21 3.06 3.09 3.22 3.29 3.53 3.64 3.79 3.79 3.77 3.65 3.44 3.43 3.34 3.31 3.37 3.24 3.04 2.86 2.81 2.82 2.82 2.78 2.72 2.97 2.72 2.54 2.48 2.54 2.78 3.12 3.53 3.81 3.81 3.85 3.94 3.98 4.04
3.74 3.41 3.09 3.02 2.91 2.83 2.78 2.82 2.90 2.89 3.01 3.21 3.34 3.43 3.46 3.41 3.39 3.41 3.51 3.47 3.34 3.16 3.05 2.81 2.58 2.52 2.56 2.66 2.65 2.71 2.45 2.33 2.22 2.19 2.20 2.31 2.51 2.83 3.12 3.37 3.55 3.70 3.77
2.93 2.74 2.51 2.35 2.34 2.42 2.37 2.51 2.61 2.64 2.67 2.73 2.76 3.03 3.12 3.08 3.13 3.12 3.17 3.36 3.44 3.22 2.92 2.66 2.46 2.36 2.28 2.24 2.36 2.42 2.09 2.09 1.93 1.90 1.90 1.93 2.00 2.11 2.31 2.50 2.63 2.71 2.81
2.25 2.10 2.01 1.99 1.96 2.03 2.18 2.26 2.23 2.26 2.40 2.44 2.49 2.66 2.67 2.61 2.68 2.77 2.89 3.07 3.33 3.31 2.98 2.59 2.37 2.20 2.03 1.95 2.10 1.95 1.86 1.88 1.68 1.59 1.58 1.61 1.63 1.72 1.82 1.92 2.08 2.10 2.09
1.98 1.93 1.84 1.77 1.74 1.74 1.79 1.91 1.98 2.02 2.07 2.19 2.29 2.33 2.35 2.28 2.34 2.43 2.63 2.81 2.95 3.03 2.87 2.40 2.09 1.92 1.83 1.67 1.87 1.74 1.78 1.81 1.55 1.46 1.43 1.49 1.55 1.60 1.61 1.65 1.71 1.82 1.86
1.74 1.69 1.63 1.53 1.47 1.48 1.54 1.67 1.71 1.78 1.86 1.94 2.05 2.08 2.12 2.12 2.21 2.23 2.28 2.34 2.50 2.64 2.59 2.26 2.05 1.96 1.89 1.75 1.79 1.79 1.76 1.70 1.51 1.49 1.40 1.42 1.47 1.48 1.46 1.48 1.49 1.54 1.66
1.65 1.60 1.51 1.41 1.32 1.30 1.36 1.41 1.44 1.50 1.65 1.70 1.76 1.83 1.80 1.85 1.94 1.92 2.00 2.06 2.15 2.30 2.34 2.32 2.22 2.14 2.01 1.85 1.87 1.86 1.56 1.38 1.36 1.41 1.30 1.20 1.20 1.21 1.24 1.27 1.27 1.22 1.25
1.65 1.55 1.41 1.33 1.28 1.23 1.24 1.30 1.36 1.38 1.46 1.53 1.55 1.61 1.62 1.69 1.64 1.59 1.66 1.77 1.83 1.90 2.12 2.14 2.05 2.01 1.85 1.70 1.86 1.75 1.60 1.69 1.32 1.27 1.17 1.08 1.05 1.01 1.03 1.05 1.07 1.06 1.00
1.56 1.49 1.43 1.34 1.28 1.22 1.22 1.24 1.26 1.35 1.40 1.41 1.40 1.42 1.39 1.41 1.45 1.51 1.54 1.72 1.80 1.94 2.03 2.02 1.94 1.89 1.80 1.72 1.86 1.84 1.81 1.76 1.48 1.14 1.10 0.96 1.01 0.99 0.96 0.94 0.93 0.93 0.91
1.55 1.50 1.44 1.39 1.25 1.12 1.05 1.09 1.13 1.19 1.31 1.34 1.35 1.28 1.25 1.32 1.40 1.41 1.36 1.52 1.68 1.85 1.85 1.85 1.84 1.86 1.78 1.85 1.79 1.70 1.76 1.82 1.68 1.41 1.42 1.17 1.10 1.12 1.10 1.02 0.94 0.92 0.89
1.50 1.46 1.36 1.27 1.18 1.02 1.03 1.02 1.06 1.15 1.24 1.29 1.26 1.24 1.20 1.19 1.20 1.22 1.19 1.29 1.50 1.61 1.72 1.79 1.80 1.83 1.82 1.91 1.92 1.87 1.87 1.91 1.87 1.55 1.61 1.51 1.37 1.42 1.29 1.15 1.03 0.89 0.82
1.50 1.41 1.30 1.26 1.22 1.15 1.01 0.89 0.94 1.05 1.19 1.20 1.20 1.26 1.11 1.00 1.11 1.11 1.14 1.15 1.19 1.24 1.37 1.59 1.77 1.84 1.97 2.10 2.20 2.11 2.04 1.98 1.96 1.74 1.86 1.79 1.63 1.64 1.33 1.14 1.17 1.00 0.88
1.40 1.39 1.36 1.39 1.41 1.19 0.95 0.80 0.90 1.09 1.20 1.10 1.06 1.12 1.19 1.20 1.13 1.12 1.13 1.18 1.19 1.18 1.19 1.26 1.54 1.65 1.68 1.90 2.14 2.17 2.16 2.06 2.02 1.98 2.11 2.05 1.65 1.56 1.36 1.51 1.48 1.28 1.08
1.32 1.34 1.36 1.42 1.39 1.25 1.03 0.86 0.90 1.05 1.16 1.12 1.08 1.02 1.02 1.06 1.04 1.08 1.19 1.37 1.41 1.36 1.10 1.14 1.27 1.36 1.41 1.55 1.72 1.96 2.19 2.29 2.17 2.01 2.03 2.06 1.80 1.68 1.68 1.85 1.75 1.67 1.44
1.23 1.22 1.27 1.36 1.31 1.21 1.01 0.82 0.81 0.87 1.01 1.15 1.26 1.22 1.13 1.04 1.00 1.05 1.21 1.42 1.48 1.45 1.43 1.54 1.65 1.62 1.58 1.62 1.58 1.79 2.14 2.31 2.25 2.15 2.00 2.08 2.04 2.01 2.07 2.05 2.03 1.90 1.81